Location: Castle Hill Houses
(40.8186°N, 73.8497°W)
Time: 16:55:06
(UTC+00:00)

Meteor 1-16 Rocket - Pass Details

Date: 26 January 2020
Orbit: 789 x 908 km, 81.2° (Epoch: 21 February)

Event Time Altitude Azimuth Distance (km) Brightness Sun altitude
Rises 10:09:02 0° 195° (SSW) 3,520 7.3 -23.1°
Reaches altitude 10° 10:11:31 10° 198° (SSW) 2,580 6.6 -22.6°
Maximum altitude 10:17:24 68° 281° (W) 966 4.2 -21.5°
Drops below altitude 10° 10:23:12 10° 4° (N) 2,549 6.7 -20.4°
Sets 10:25:39 0° 7° (N) 3,476 7.4 -20.0°
